STARLINK-34692

Last updated on Mon Oct 20 2025 00:02:06 GMT+0000 (Coordinated Universal Time)

1 65759U 25216AB 25292.23042553 .00126343 00000+0 22393-2 0 9991 2 65759 53.1589 272.2129 0001286 88.7652 271.3504 15.49358017 4811
UTC large
Height (km)
Speed (km/s)
/
Latitude / Longitude
Inclination (degrees)
Orbital Period (minutes)
Azimuth
Elevation
Range (km)
Doppler Factor

Next 0 passes for location: London (51.5072 / 0.1276)

Sorry there are no passes over London.